Aérodrome :
LOGIN :

S'inscrire | Disclaimer

   EN    FR    IT 

 










Légende :    VFR   VFR Marginal   IFR   IFR Intensif   IFR Très Intensif
Visi : 
Plafond : 
>= 8 km
>= 3000ft
5 à 8 km
1000 à 3000 ft
1500m à 5 km
500 à 1000 ft
800 à 1500m
200 à 500 ft
< 800m
< 200 ft
Symboles :   Orages  Brouillard  Fortes neiges  Fortes précipitations  Vent > 20 kt
SIGMETs :   Divers  Orages  Givrage  Turbulence  Onde Orograph.  Cendres Volcan.







- Altitude de l'aérodrome : 187 ft


LPMR - Monte Real Air Base

DERNIER METAR :
  • 200800Z 35009KT 9999 BKN025 11/08 Q1018

METARs EXPIRÉS :
  • 200700Z 36011KT 9999 BKN025 11/08 Q1018
  • 200600Z 36013KT 9999 BKN025 11/07 Q1017

TAF TAF LPMR
Valide du 20 à 06h jusqu'au 21 à 06h UTC


200509Z 2006/2106 34015KT 9999 SCT010 SCT020
TEMPO 2006/2009 33020G32KT SCT008 BKN015
TEMPO 2012/2018 35016G28KT 8000 -SHRA SCT010 BKN015
BECMG 2017/2020 02005KT
PROB40 2103/2106 0700 FG BKN002
Pas de NOTAMs connus pour ce terrain.



MET'MAP, la Météo Aéronautique d'un coup d'oeil ! - Copyright ORBIFLY Décembre 2007 - Disclaimer

ORBIFLY MET'MAP TEAM :

Programmation & Développement : Alexandra Zaïnal
Conception & Développement : Baudouin d'Aumeries
Co-Programmation & Développement : Marc-Olivier Méhu
Soutien technique & logistique : Manuel Goepfert

Contact : metmap@orbifly.com




SOURCES & CREDITS :

   NOAA